Cloud_Cover
0 0 10 69 100 13 86 100 100 52 27 91 75 1 100 42 87 100 96 99 69 86 98 22 87 92 5 1 0 41 38 59 48 7 10 12 19 93 6 85 5 5 4 18
0 0 29 83 100 34 18 79 100 86 4 7 62 91 100 7 17 100 64 89 65 36 74 91 100 23 6 0 3 82 6 67 54 79 63 21 49 8 12 5 5 5 13 4
0 1 1 90 100 47 0 100 55 92 3 64 100 100 100 26 90 5 100 98 79 100 100 100 64 99 6 2 0 0 1 36 92 30 84 21 69 41 69 53 5 5 35 5
0 0 2 0 0 0 96 100 48 5 2 10 1 88 96 99 20 0 6 7 38 19 100 91 100 100 78 4 0 0 5 3 81 13 14 3 16 4 19 86 0 0 1 1
0 0 0 0 0 1 100 3 1 17 5 3 3 23 6 100 96 62 2 5 89 28 84 100 100 93 100 100 25 0 0 5 26 5 11 2 5 73 100 94 0 0 0 0
0 0 0 0 0 0 37 0 2 1 12 62 100 90 100 100 32 100 97 99 96 100 60 100 57 100 100 100 53 0 0 5 1 5 7 6 74 100 100 61 1 0 0 39
0 0 0 0 3 0 0 27 97 36 100 100 76 61 42 100 100 100 99 33 100 80 39 90 100 78 100 100 72 22 0 0 5 98 69 98 65 11 15 13 19 1 76 74
20 0 0 0 0 32 0 79 72 86 100 100 46 100 5 5 76 17 1 10 100 100 63 65 100 65 100 82 92 0 0 0 2 100 81 100 14 14 1 0 0 50 26 1
100 84 7 0 1 55 35 12 96 94 86 100 64 52 1 0 3 0 0 2 16 99 93 76 100 100 62 74 60 0 0 0 0 72 100 100 40 4 5 4 0 99 19 6
94 63 4 5 0 0 12 63 61 99 98 100 64 37 100 22 0 0 59 37 80 48 28 10 100 100 83 86 88 22 0 0 0 0 35 84 15 29 3 0 0 3 6 100
5 100 99 95 0 0 0 0 0 3 100 100 72 89 16 42 2 4 0 96 100 20 89 11 100 100 85 66 41 100 17 22 26 0 0 5 0 6 5 0 3 5 96 100
4 5 64 90 31 0 6 88 2 2 39 35 100 96 8 1 0 0 0 6 16 0 0 6 6 12 100 5 98 100 100 100 71 5 25 77 5 1 0 0 0 100 100 100
5 7 97 100 86 3 0 24 15 71 86 97 100 20 19 5 1 1 18 0 0 0 0 0 13 100 99 85 80 100 100 100 100 100 57 25 2 6 5 0 0 0 79 100
5 5 98 98 100 100 99 2 0 32 99 96 100 88 80 76 44 5 50 0 0 0 0 0 0 18 100 100 28 39 96 100 100 100 10 10 1 1 0 44 65 0 0 0
100 94 55 100 76 100 81 99 4 4 2 26 98 100 54 100 93 73 0 0 0 0 0 0 0 0 23 92 11 23 8 75 100 85 91 74 76 51 10 0 0 2 0 0
92 100 100 99 100 87 100 95 5 0 0 2 100 100 35 5 14 15 5 0 0 0 18 0 0 0 0 1 5 5 5 25 93 100 100 100 100 100 47 3 5 2 5 4
94 100 100 100 100 100 86 51 3 0 0 0 22 100 38 5 4 1 0 0 0 0 9 28 0 0 0 0 0 0 5 5 100 100 100 100 100 29 12 2 2 10 2 7
100 98 38 86 95 100 100 93 35 2 5 1 1 88 15 0 0 0 0 0 0 0 0 1 60 30 0 5 0 0 0 0 59 100 100 100 12 50 82 94 5 4 0 1
100 100 54 9 89 98 100 97 31 0 0 0 0 0 1 0 0 0 0 0 0 0 0 0 0 0 0 6 50 16 0 0 0 63 93 100 100 50 5 5 6 5 4 5
100 100 100 100 26 100 100 80 100 75 4 0 0 2 4 0 0 5 4 0 0 0 0 0 0 0 0 0 0 0 0 0 2 55 98 38 95 58 64 80 55 5 5 6
100 100 100 100 81 98 100 99 100 54 35 1 3 2 1 0 4 6 25 52 6 5 0 0 0 0 0 0 0 0 0 0 0 66 100 69 70 73 100 100 98 90 5 50
100 100 100 100 100 50 100 88 100 77 5 1 0 2 31 13 1 1 12 8 2 0 0 0 0 0 0 0 34 28 0 4 0 0 68 24 38 6 97 100 100 27 16 28
66 99 100 100 100 100 100 100 100 5 8 5 0 1 34 6 5 4 0 0 0 0 0 0 0 0 14 0 0 0 0 0 0 0 27 42 69 100 66 94 100 75 34 43
75 100 100 100 59 100 100 88 95 13 59 30 1 0 1 8 15 6 5 0 0 0 0 0 0 0 19 54 74 93 0 0 16 16 0 48 100 100 100 77 97 100 88 80
92 100 100 86 100 100 9 79 86 82 5 100 5 1 6 4 4 2 2 0 0 0 0 0 0 0 0 16 34 27 0 0 42 91 10 75 100 100 97 92 100 98 100 100
100 100 100 81 99 84 90 96 100 47 68 98 82 3 1 0 0 0 0 0 0 0 0 0 0 0 27 4 0 0 0 0 54 11 70 100 63 98 93 94 71 100 100 100